EW9037 Weather Reports


time (UTC)temp
F
wind
direction
speed
knots
gust
knots
rain 1hr
in
rain 24hr
in
rain mn
in
humidity
%
barometer
mb
20260504031518 53 167 1.7 3.5 0.00 0.00 0.00 65 1014.1
20260504030017 53 167 0.9 2.6 0.00 0.00 0.00 65 1014.1
20260504024511 53 169 0.0 1.7 0.00 0.00 0.00 63 1014.4
20260504023028 52 151 0.0 1.7 0.00 0.00 0.00 65 1014.3
20260504021524 53 136 0.9 0.9 0.00 0.00 0.00 63 1014.6
20260504020023 55 150 0.0 4.3 0.00 0.00 0.00 59 1014.4
20260504014527 53 157 0.0 1.7 0.00 0.00 0.00 63 1014.3
20260504013017 53 151 0.0 0.0 0.00 0.00 0.00 63 1014.4
20260504011512 55 140 0.0 0.0 0.00 0.00 0.00 59 1014.5
20260504010009 57 238 0.0 0.9 0.00 0.00 0.00 55 1014.3
20260504004526 59 171 1.7 2.6 0.00 0.00 0.00 50 1013.7
20260504003029 59 211 1.7 4.3 0.00 0.00 0.00 49 1013.7
20260504001525 60 202 3.5 7.0 0.00 0.00 0.00 48 1013.6
20260504000020 61 222 2.6 7.8 0.00 0.00 0.00 45 1013.6
20260503234519 62 200 5.2 11.3 0.00 0.00 0.00 44 1013.6
20260503233018 63 205 2.6 8.7 0.00 0.00 0.00 44 1013.6
20260503231512 63 246 3.5 13.0 0.00 0.00 0.00 44 1013.6
20260503230028 64 229 5.2 12.2 0.00 0.00 0.00 42 1013.7
20260503224526 63 191 5.2 11.3 0.00 0.00 0.00 43 1014.3
20260503223026 64 185 6.1 14.8 0.00 0.00 0.00 41 1014.6
20260503221528 65 203 5.2 13.0 0.00 0.00 0.00 41 1014.9
20260503220020 64 232 6.1 11.3 0.00 0.00 0.00 41 1014.9
20260503214515 65 238 6.1 11.3 0.00 0.00 0.00 41 1015.4
20260503213030 65 264 9.6 14.8 0.00 0.00 0.00 40 1015.7
20260503211528 65 234 5.2 13.0 0.00 0.00 0.00 39 1016.0
20260503210029 64 198 7.8 16.5 0.00 0.00 0.00 39 1015.7
20260503204526 65 176 6.1 16.5 0.00 0.00 0.00 37 1016.1
20260503203024 64 219 5.2 13.0 0.00 0.00 0.00 37 1016.1
20260503201520 65 247 4.3 12.2 0.00 0.00 0.00 37 1016.4
20260503200016 65 210 7.8 12.2 0.00 0.00 0.00 36 1016.5
20260503194529 64 237 5.2 15.6 0.00 0.00 0.00 37 1017.2
20260503193027 64 227 7.0 16.5 0.00 0.00 0.00 38 1017.7
20260503191530 63 180 7.8 13.9 0.00 0.00 0.00 36 1018.1
20260503190027 63 251 3.5 13.9 0.00 0.00 0.00 35 1018.2
20260503184524 63 205 3.5 15.6 0.00 0.00 0.00 35 1018.3
20260503183021 62 147 4.3 16.5 0.00 0.00 0.00 37 1018.6
20260503181519 62 272 7.0 11.3 0.00 0.00 0.00 34 1018.9
20260503180030 60 213 6.1 13.0 0.00 0.00 0.00 38 1018.8
20260503174529 61 227 7.0 14.8 0.00 0.00 0.00 38 1019.2
20260503173029 60 154 6.1 13.0 0.00 0.00 0.00 36 1019.5
20260503171526 60 277 7.8 12.2 0.00 0.00 0.00 35 1019.7
20260503081507 32 352 0.0 0.0 0.00 0.00 0.00 94 1020.2
20260503071518 34 346 0.0 0.0 0.00 0.00 0.00 93 1019.9
20260503054531 35 346 0.0 0.0 0.00 0.00 0.00 92 1020.2
20260503053020 36 346 0.0 0.0 0.00 0.00 0.00 91 1020.1
20260503051511 37 346 0.0 0.0 0.00 0.00 0.00 92 1020.1
20260503050021 37 346 0.0 0.0 0.00 0.00 0.00 90 1020.0
20260503044507 38 346 0.0 0.0 0.00 0.00 0.00 91 1020.0
20260503043027 38 298 0.0 0.0 0.00 0.00 0.00 90 1020.0
20260503041532 39 298 0.0 0.0 0.00 0.00 0.00 90 1020.0
20260503040022 39 298 0.0 0.0 0.00 0.00 0.00 90 1019.9
20260503034518 39 298 0.0 0.0 0.00 0.00 0.00 89 1019.9
20260503033013 40 298 0.0 0.0 0.00 0.00 0.00 87 1019.9